QTR72 KDEN-LFPG

Flight info

Callsign QTR72
Flight time N/A
Altitude 37000
Route EEONS8 WYNDM DCT HCT DCT OBH DCT KP69G DCT KG72K DCT OBK DCT HOCKE Q905 IPTOS DCT KEMVI Q852 TAMKO/N0491F390 Q941 AGLUK DCT BAREE N647B RIKAL/M084F400 DCT 53N050W 55N040W 56N030W 56N020W DCT RESNO DCT NETKI/N0489F410 DCT CON DCT INKUR DCT BAL DCT LIPGO DCT NUCHU L18 MID/N0455F290 Y803 SFD UM605 BIBAX
Aircraft B772/H-SDE2E3FGHIJ5LORVWXY/LB1D1

Departure

Time 2026-05-08 06:15
Airport Denver International Airport (KDEN)

Arrival

Time N/A
Airport Charles de Gaulle International Airport (LFPG)
Time Latitude Longitude Altitude Speed Heading
2026-05-08 05:39 39.85449 -104.67306 5388 ft 0 kts 177°
2026-05-08 06:01 39.85450 -104.67306 5388 ft 2 kts 177°
2026-05-08 06:01 39.85476 -104.67308 5395 ft 4 kts 177°
2026-05-08 06:01 39.85503 -104.67309 5385 ft 4 kts 177°
2026-05-08 06:02 39.85530 -104.67311 5386 ft 4 kts 177°
2026-05-08 06:02 39.85539 -104.67312 5385 ft 0 kts 177°
2026-05-08 06:07 39.85531 -104.67316 5385 ft 2 kts 207°
2026-05-08 06:07 39.85531 -104.67361 5388 ft 10 kts 289°
2026-05-08 06:08 39.85563 -104.67460 5387 ft 13 kts 293°
2026-05-08 06:08 39.85589 -104.67569 5387 ft 13 kts 279°
2026-05-08 06:08 39.85594 -104.67684 5387 ft 13 kts 271°
2026-05-08 06:08 39.85595 -104.67759 5387 ft 13 kts 270°
2026-05-08 06:09 39.85595 -104.67874 5387 ft 13 kts 270°
2026-05-08 06:09 39.85596 -104.67989 5386 ft 13 kts 270°
2026-05-08 06:09 39.85597 -104.68140 5386 ft 13 kts 270°
2026-05-08 06:09 39.85598 -104.68255 5380 ft 13 kts 271°
2026-05-08 06:10 39.85599 -104.68369 5376 ft 13 kts 270°
2026-05-08 06:10 39.85601 -104.68446 5376 ft 13 kts 280°
2026-05-08 06:10 39.85665 -104.68511 5374 ft 13 kts 356°
2026-05-08 06:10 39.85753 -104.68512 5373 ft 13 kts
2026-05-08 06:11 39.85841 -104.68511 5373 ft 13 kts
2026-05-08 06:11 39.85929 -104.68510 5373 ft 13 kts
2026-05-08 06:11 39.86016 -104.68509 5372 ft 13 kts
2026-05-08 06:11 39.86104 -104.68508 5372 ft 13 kts
2026-05-08 06:12 39.86192 -104.68506 5369 ft 13 kts
2026-05-08 06:12 39.86280 -104.68505 5365 ft 13 kts
2026-05-08 06:12 39.86370 -104.68504 5366 ft 13 kts
2026-05-08 06:12 39.86424 -104.68541 5364 ft 8 kts 296°
2026-05-08 06:13 39.86429 -104.68617 5364 ft 8 kts 270°
2026-05-08 06:13 39.86432 -104.68689 5365 ft 6 kts 288°
2026-05-08 06:13 39.86451 -104.68709 5363 ft 3 kts 336°
2026-05-08 06:13 39.86476 -104.68715 5365 ft 3 kts 353°
2026-05-08 06:14 39.86498 -104.68716 5366 ft 6 kts 359°
2026-05-08 06:14 39.86638 -104.68715 5366 ft 45 kts
2026-05-08 06:14 39.87212 -104.68707 5364 ft 118 kts
2026-05-08 06:14 39.88267 -104.68692 5365 ft 183 kts
2026-05-08 06:15 39.89623 -104.68657 5863 ft 192 kts
2026-05-08 06:15 39.90940 -104.68620 6766 ft 194 kts
2026-05-08 06:15 39.92255 -104.68010 7021 ft 214 kts 35°
2026-05-08 06:15 39.93193 -104.66413 7112 ft 233 kts 65°
2026-05-08 06:16 39.93776 -104.64360 7304 ft 253 kts 75°
2026-05-08 06:16 39.94093 -104.62006 7585 ft 272 kts 82°
2026-05-08 06:16 39.94314 -104.59511 8080 ft 283 kts 83°
2026-05-08 06:16 39.94529 -104.56911 8642 ft 292 kts 83°
2026-05-08 06:17 39.94997 -104.51532 9973 ft 305 kts 82°
2026-05-08 06:17 39.95297 -104.48764 10494 ft 316 kts 78°
2026-05-08 06:17 39.95738 -104.45845 10660 ft 340 kts 76°
2026-05-08 06:18 39.96250 -104.42728 10837 ft 364 kts 76°
2026-05-08 06:18 39.96801 -104.39401 11105 ft 384 kts 76°
2026-05-08 06:18 39.97366 -104.35941 11674 ft 395 kts 76°
2026-05-08 06:18 39.97933 -104.32403 12357 ft 402 kts 76°
2026-05-08 06:19 39.98493 -104.28860 13129 ft 406 kts 76°
2026-05-08 06:19 39.99061 -104.25227 13897 ft 411 kts 75°
2026-05-08 06:19 39.99631 -104.21554 14582 ft 416 kts 76°
2026-05-08 06:19 40.00206 -104.17833 15299 ft 420 kts 76°
2026-05-08 06:20 40.00782 -104.14086 16014 ft 424 kts 76°
2026-05-08 06:20 40.01362 -104.10297 16723 ft 428 kts 76°
2026-05-08 06:20 40.01946 -104.06473 17420 ft 433 kts 76°
2026-05-08 06:20 40.02537 -104.02598 18115 ft 437 kts 76°
2026-05-08 06:21 40.03133 -103.98687 18730 ft 442 kts 76°
2026-05-08 06:21 40.03732 -103.94739 19351 ft 445 kts 76°
2026-05-08 06:21 40.04336 -103.90758 19960 ft 449 kts 76°
2026-05-08 06:21 40.04942 -103.86744 20550 ft 453 kts 76°
2026-05-08 06:22 40.05554 -103.82690 21132 ft 458 kts 77°
2026-05-08 06:22 40.06172 -103.78585 21663 ft 463 kts 77°
2026-05-08 06:22 40.06792 -103.74446 22235 ft 467 kts 77°
2026-05-08 06:22 40.07418 -103.70263 22808 ft 471 kts 77°
2026-05-08 06:23 40.08047 -103.66050 23401 ft 475 kts 77°
2026-05-08 06:23 40.08680 -103.61798 23863 ft 479 kts 77°
2026-05-08 06:23 40.09316 -103.57513 24324 ft 482 kts 77°
2026-05-08 06:23 40.09955 -103.53198 24789 ft 486 kts 77°
2026-05-08 06:24 40.10597 -103.48851 25269 ft 489 kts 77°
2026-05-08 06:24 40.11244 -103.44459 25648 ft 494 kts 77°
2026-05-08 06:24 40.11894 -103.40034 26072 ft 498 kts 77°
2026-05-08 06:24 40.12548 -103.35572 26517 ft 501 kts 77°
2026-05-08 06:25 40.13202 -103.31090 26963 ft 504 kts 77°
2026-05-08 06:25 40.13859 -103.26581 27367 ft 507 kts 77°
2026-05-08 06:25 40.14517 -103.22046 27752 ft 510 kts 77°
2026-05-08 06:25 40.15179 -103.17475 28130 ft 513 kts 77°
2026-05-08 06:26 40.15834 -103.12942 28499 ft 516 kts 77°
2026-05-08 06:26 40.16508 -103.08257 28729 ft 519 kts 77°
2026-05-08 06:26 40.17167 -103.03668 29045 ft 522 kts 77°
2026-05-08 06:26 40.17835 -102.98998 29389 ft 524 kts 77°
2026-05-08 06:27 40.18503 -102.94316 29834 ft 523 kts 77°
2026-05-08 06:27 40.19166 -102.89645 30279 ft 521 kts 77°
2026-05-08 06:27 40.19825 -102.84992 30696 ft 520 kts 77°
2026-05-08 06:27 40.20482 -102.80344 31071 ft 519 kts 77°
2026-05-08 06:28 40.21137 -102.75698 31422 ft 520 kts 77°
2026-05-08 06:28 40.21793 -102.71036 31690 ft 521 kts 77°
2026-05-08 06:28 40.22445 -102.66381 32023 ft 521 kts 77°
2026-05-08 06:28 40.23096 -102.61721 32388 ft 519 kts 77°
2026-05-08 06:29 40.23742 -102.57079 32746 ft 518 kts 77°
2026-05-08 06:29 40.24389 -102.52423 32884 ft 522 kts 77°
2026-05-08 06:29 40.25684 -102.43056 32906 ft 522 kts 78°
2026-05-08 06:30 40.26961 -102.33748 32919 ft 519 kts 78°
2026-05-08 06:30 40.28233 -102.24432 32921 ft 520 kts 78°
2026-05-08 06:31 40.29500 -102.15092 32916 ft 521 kts 78°
2026-05-08 06:31 40.30762 -102.05726 32910 ft 522 kts 78°
2026-05-08 06:32 40.32018 -101.96346 32916 ft 523 kts 78°
2026-05-08 06:32 40.33266 -101.86969 32927 ft 523 kts 78°
2026-05-08 06:33 40.34507 -101.77577 32940 ft 523 kts 78°
2026-05-08 06:33 40.35733 -101.68245 32946 ft 522 kts 78°
2026-05-08 06:34 40.36957 -101.58864 32954 ft 522 kts 78°
2026-05-08 06:34 40.38172 -101.49491 32948 ft 521 kts 78°
2026-05-08 06:35 40.39377 -101.40128 32936 ft 520 kts 78°
2026-05-08 06:35 40.40575 -101.30768 32932 ft 520 kts 78°
2026-05-08 06:36 40.41766 -101.21398 32906 ft 521 kts 79°
2026-05-08 06:36 40.42950 -101.12017 32897 ft 521 kts 79°
2026-05-08 06:37 40.44129 -101.02623 32900 ft 522 kts 79°
2026-05-08 06:37 40.45594 -100.93317 32888 ft 519 kts 71°
2026-05-08 06:38 40.48210 -100.84530 32886 ft 515 kts 60°
2026-05-08 06:38 40.51413 -100.76119 32895 ft 515 kts 60°
2026-05-08 06:39 40.54610 -100.67688 32881 ft 516 kts 60°
2026-05-08 06:39 40.57773 -100.59221 32887 ft 516 kts 61°
2026-05-08 06:40 40.60918 -100.50720 32886 ft 517 kts 60°
2026-05-08 06:40 40.64063 -100.42192 32887 ft 518 kts 61°
2026-05-08 06:41 40.67205 -100.33651 32909 ft 518 kts 61°
2026-05-08 06:41 40.70344 -100.25096 32888 ft 519 kts 61°
2026-05-08 06:42 40.73477 -100.16533 32893 ft 519 kts 60°
2026-05-08 06:42 40.76607 -100.07955 32877 ft 519 kts 61°
2026-05-08 06:43 40.79708 -99.99431 32906 ft 519 kts 61°
2026-05-08 06:43 40.82823 -99.90841 32934 ft 519 kts 61°
2026-05-08 06:44 40.85931 -99.82245 32936 ft 519 kts 61°
2026-05-08 06:44 40.89036 -99.73633 32929 ft 520 kts 61°
2026-05-08 06:45 40.92145 -99.64984 32917 ft 521 kts 61°
2026-05-08 06:45 40.95250 -99.56319 32934 ft 522 kts 61°
2026-05-08 06:46 40.98353 -99.47632 32907 ft 522 kts 61°
2026-05-08 06:46 41.01451 -99.38933 32903 ft 523 kts 61°
2026-05-08 06:47 41.04543 -99.30224 32896 ft 522 kts 61°
2026-05-08 06:47 41.07626 -99.21514 32905 ft 522 kts 61°
2026-05-08 06:48 41.10700 -99.12802 32899 ft 521 kts 61°
2026-05-08 06:48 41.13764 -99.04093 32909 ft 521 kts 61°
2026-05-08 06:49 41.16799 -98.95441 32899 ft 521 kts 61°
2026-05-08 06:49 41.19846 -98.86725 32905 ft 520 kts 61°
2026-05-08 06:50 41.22885 -98.78008 32935 ft 520 kts 61°
2026-05-08 06:50 41.25915 -98.69287 32919 ft 519 kts 61°
2026-05-08 06:51 41.28934 -98.60572 32905 ft 518 kts 61°
2026-05-08 06:51 41.31937 -98.51873 32906 ft 517 kts 61°